This is the latest recevied weather packets stored in our database for station/object TONGUE. If no packets are shown the sender has not sent any weather packets the latest 10 day(s).
| Time | Temp. | Humidity | Pressure | Rain* | Wind** | Luminosity | Snow |
|---|---|---|---|---|---|---|---|
| 1788214802 | 23.89° C | 58% | 0 hPa | - | - | - | - |
| 1788214203 | 23.33° C | 60% | 0 hPa | - | - | - | - |
| 1788213603 | 23.33° C | 61% | 0 hPa | - | - | - | - |
| 1788213008 | 22.78° C | 63% | 0 hPa | - | - | - | - |
| 1788212403 | 22.78° C | 63% | 0 hPa | - | - | - | - |
| 1788211803 | 22.22° C | 65% | 0 hPa | - | - | - | - |
| 1788211203 | 22.22° C | 66% | 0 hPa | - | - | - | - |
| 1788210604 | 21.67° C | 67% | 0 hPa | - | - | - | - |
| 1788210003 | 22.78° C | 64% | 0 hPa | - | - | - | - |
| 1788209403 | 22.78° C | 59% | 0 hPa | - | - | - | - |
| 1788208803 | 22.22° C | 58% | 0 hPa | - | - | - | - |
| 1788208203 | 22.22° C | 59% | 0 hPa | - | - | - | - |
| 1788207603 | 21.67° C | 60% | 0 hPa | - | - | - | - |
| 1788207003 | 21.11° C | 62% | 0 hPa | - | - | - | - |
| 1788206404 | 22.22° C | 60% | 0 hPa | - | - | - | - |
| 1788205803 | 21.67° C | 57% | 0 hPa | - | - | - | - |
| 1788205203 | 21.67° C | 60% | 0 hPa | - | - | - | - |
| 1788204603 | 21.11° C | 60% | 0 hPa | - | - | - | - |
| 1788204009 | 20.56° C | 60% | 0 hPa | - | - | - | - |
| 1788203403 | 20.56° C | 59% | 0 hPa | - | - | - | - |
| 1788202804 | 20° C | 59% | 0 hPa | - | - | - | - |
| 1788202202 | 20.56° C | 59% | 0 hPa | - | - | - | - |
| 1788201603 | 19.44° C | 63% | 0 hPa | - | - | - | - |
| 1788201003 | 19.44° C | 65% | 0 hPa | - | - | - | - |
| 1788200403 | 18.89° C | 67% | 0 hPa | - | - | - | - |
* Rain since midnight (hover to see other rain measurements)
** Current wind speed in m/s (hover to see current wind gust speed)